Weather History for Olbia / Costa Smeralda, Italy

Change the Weather History Date:

Friday, August 2, 2013

  Actual Average Record
Temperature  
Mean Temperature 78 °F -  
Max Temperature 91 °F 86 °F - ()
Min Temperature 64 °F 66 °F - ()
Cooling Degree Days 12    
Growing Degree Days 28 (Base 50)    
Moisture  
Dew Point 59 °F    
Average Humidity 54    
Maximum Humidity 83    
Minimum Humidity 29    
Precipitation  
Precipitation 0.00 in 0.04 in - ()
Sea Level Pressure  
Sea Level Pressure 30.05 in    
Wind  
Wind Speed 6 mph ()    
Max Wind Speed 13 mph    
Max Gust Speed -    
T = Trace of Precipitation, MM = Missing Value Source: Averaged Metar Reports

Daily Weather History Graph

Daily Weather History Graph

Search for Another Location

Airport:

Trip Planner

Search our weather history database for the weather conditions in past years. The results will help you decide how hot, cold, wet, or windy it might be!

Date:

Astronomy

Aug. 02, 2013 Rise Set
Actual Time 6:19 AM CEST 8:36 PM CEST
Civil Twilight 5:48 AM CEST 9:07 PM CEST
Nautical Twilight 5:10 AM CEST 9:45 PM CEST
Astronomical Twilight 4:28 AM CEST 10:26 PM CEST
Moon 2:27 AM CEST (8/2) 5:21 PM CEST (8/2)
Length of Visible Light 15h 18m
Length of Day
14h 17m
Waning Crescent, 17% of the Moon is Illuminated
Aug 2
Waning Crescent
Aug 6
New
Aug 14
First Quarter
Aug 21
Full
Aug 28
Last Quarter

Hourly Weather History & Observations

Time (CEST) Temp. Heat Index Dew Point Humidity Pressure Visibility Wind Dir Wind Speed Gust Speed Precip Events Conditions
12:20 AM 68.0 °F - 55.4 °F 64% 30.04 in - SSW 3.5 mph - N/A   Clear
12:50 AM 69.8 °F - 53.6 °F 56% 30.04 in - SSW 6.9 mph - N/A   Clear
1:20 AM 68.0 °F - 53.6 °F 60% 30.04 in - SSW 5.8 mph - N/A   Clear
1:50 AM 66.2 °F - 53.6 °F 64% 30.04 in - SSW 3.5 mph - N/A   Clear
2:20 AM 66.2 °F - 53.6 °F 64% 30.04 in - SSW 5.8 mph - N/A   Clear
2:50 AM 66.2 °F - 53.6 °F 64% 30.04 in - SW 4.6 mph - N/A   Clear
3:20 AM 66.2 °F - 53.6 °F 64% 30.04 in - SW 4.6 mph - N/A   Clear
3:50 AM 66.2 °F - 53.6 °F 64% 30.04 in - SW 5.8 mph - N/A   Clear
4:20 AM 64.4 °F - 53.6 °F 68% 30.04 in - SSW 4.6 mph - N/A   Clear
4:50 AM 66.2 °F - 53.6 °F 64% 30.04 in - SW 4.6 mph - N/A   Clear
5:20 AM 66.2 °F - 53.6 °F 64% 30.04 in - SSW 3.5 mph - N/A   Clear
5:50 AM 64.4 °F - 53.6 °F 68% 30.04 in - SW 3.5 mph - N/A   Clear
6:20 AM 66.2 °F - 53.6 °F 64% 30.04 in - SSW 4.6 mph - N/A   Clear
6:50 AM 66.2 °F - 53.6 °F 64% 30.04 in - SSW 3.5 mph - N/A   Clear
7:20 AM 69.8 °F - 53.6 °F 56% 30.04 in - SSW 4.6 mph - N/A   Clear
7:50 AM 75.2 °F - 53.6 °F 47% 30.04 in - SSW 4.6 mph - N/A   Clear
8:20 AM 78.8 °F - 53.6 °F 42% 30.06 in - SW 4.6 mph - N/A   Clear
8:50 AM 82.4 °F 81.4 °F 53.6 °F 37% 30.06 in - SW 4.6 mph - N/A   Clear
9:20 AM 86.0 °F 84.2 °F 53.6 °F 33% 30.06 in - Variable 2.3 mph - N/A   Clear
9:50 AM 87.8 °F 85.7 °F 53.6 °F 31% 30.06 in - Variable 3.5 mph - N/A   Clear
10:20 AM 87.8 °F 86.1 °F 55.4 °F 33% 30.06 in - NE 5.8 mph - N/A   Clear
10:50 AM 87.8 °F 86.1 °F 55.4 °F 33% 30.06 in - NE 6.9 mph - N/A   Clear
11:20 AM 89.6 °F 88.1 °F 57.2 °F 33% 30.06 in - ENE 9.2 mph - N/A   Clear
11:50 AM 89.6 °F 88.1 °F 57.2 °F 33% 30.06 in - NE 10.4 mph - N/A   Clear
12:20 PM 89.6 °F 87.3 °F 53.6 °F 29% 30.06 in - NE 10.4 mph - N/A   Clear
12:50 PM 89.6 °F 88.9 °F 59.0 °F 36% 30.06 in - NE 9.2 mph - N/A   Clear
1:20 PM 87.8 °F 86.1 °F 55.4 °F 33% 30.06 in - NE 11.5 mph - N/A   Clear
1:50 PM 89.6 °F 88.1 °F 57.2 °F 33% 30.04 in - ENE 11.5 mph - N/A   Clear
2:20 PM 87.8 °F 86.1 °F 55.4 °F 33% 30.04 in - NE 12.7 mph - N/A   Clear
2:50 PM 89.6 °F 89.5 °F 60.8 °F 38% 30.04 in - ENE 11.5 mph - N/A   Clear
3:20 PM 87.8 °F 87.6 °F 60.8 °F 40% 30.04 in - NE 12.7 mph - N/A   Clear
3:50 PM 91.4 °F 90.7 °F 59.0 °F 34% 30.04 in - NE 11.5 mph - N/A   Clear
4:20 PM 91.4 °F 92.1 °F 62.6 °F 38% 30.04 in - NE 9.2 mph - N/A   Clear
4:50 PM 87.8 °F 88.5 °F 62.6 °F 43% 30.04 in - NE 11.5 mph - N/A   Clear
5:20 PM 89.6 °F 91.1 °F 64.4 °F 43% 30.04 in - NE 10.4 mph - N/A   Clear
5:50 PM 86.0 °F 88.2 °F 66.2 °F 51% 30.04 in - NE 11.5 mph - N/A   Clear
6:20 PM 84.2 °F 88.4 °F 69.8 °F 62% 30.04 in - NE 12.7 mph - N/A   Clear
6:50 PM 84.2 °F 88.4 °F 69.8 °F 62% 30.04 in - NE 9.2 mph - N/A   Clear
7:20 PM 82.4 °F 86.3 °F 69.8 °F 66% 30.04 in - NE 9.2 mph - N/A   Clear
7:50 PM 80.6 °F 84.6 °F 71.6 °F 74% 30.04 in - NNE 5.8 mph - N/A   Clear
8:20 PM 80.6 °F 84.6 °F 71.6 °F 74% 30.04 in - NNE 4.6 mph - N/A   Clear
8:50 PM 78.8 °F - 71.6 °F 78% 30.04 in - NNE 3.5 mph - N/A   Clear
9:20 PM 77.0 °F - 71.6 °F 83% 30.06 in - NE 3.5 mph - N/A   Clear
9:50 PM 75.2 °F - 68.0 °F 78% 30.06 in - Variable 2.3 mph - N/A   Clear
10:20 PM 75.2 °F - 69.8 °F 83% 30.06 in - South 3.5 mph - N/A   Clear
10:50 PM 75.2 °F - 69.8 °F 83% 30.06 in - South 3.5 mph - N/A   Clear
11:20 PM 73.4 °F - 66.2 °F 78% 30.06 in - South 3.5 mph - N/A   Clear
11:50 PM 71.6 °F - 62.6 °F 73% 30.06 in - WSW 4.6 mph - N/A   Clear